Weather History for Naples, FL

Change the Weather History Date:

Monday, January 30, 2012

  Actual Average Record
Temperature  
Mean Temperature 69 °F 65 °F  
Max Temperature 80 °F 75 °F 88 °F (2002)
Min Temperature 57 °F 55 °F 33 °F (1978)
Degree Days  
Heating Degree Days 0 3  
Month to date heating degree days 72 103  
Since 1 July heating degree days 97 181  
Cooling Degree Days 4 2  
Month to date cooling degree days 79 86  
Year to date cooling degree days 79 86  
Growing Degree Days 18 (Base 50)    
Moisture  
Dew Point 55 °F    
Average Humidity 67    
Maximum Humidity 86    
Minimum Humidity 47    
Precipitation  
Precipitation 0.00 in 0.08 in 1.53 in (2014)
Month to date precipitation 0.17 1.77  
Year to date precipitation 0.17 1.77  
Snow  
Snow 0.00 in - - ()
Month to date snowfall 0.0  
Since 1 July snowfall 0.0  
Snow Depth 0.00 in    
Sea Level Pressure  
Sea Level Pressure 30.26 in    
Wind  
Wind Speed 13 mph (NE)    
Max Wind Speed 23 mph    
Max Gust Speed 30 mph    
Visibility 10 miles    
Events      
T = Trace of Precipitation, MM = Missing Value Source: NWS Daily Summary

Daily Weather History Graph

Daily Weather History Graph

Search for Another Location

Airport:

Trip Planner

Search our weather history database for the weather conditions in past years. The results will help you decide how hot, cold, wet, or windy it might be!

Date:

Astronomy

Jan. 30, 2012 Rise Set
Actual Time 7:12 AM EST 6:08 PM EST
Civil Twilight 6:48 AM EST 6:32 PM EST
Nautical Twilight 6:20 AM EST 7:00 PM EST
Astronomical Twilight 5:53 AM EST 7:27 PM EST
Moon 11:23 AM EST (1/30) 12:04 AM EST (1/30)
Length of Visible Light 11h 44m
Length of Day
10h 55m
Waxing Crescent, 46% of the Moon is Illuminated
Jan 30
Waxing Crescent
Jan 30
First Quarter
Feb 7
Full
Feb 14
Last Quarter
Feb 21
New

Hourly Weather History & Observations

Time (EST) Temp. Dew Point Humidity Pressure Visibility Wind Dir Wind Speed Gust Speed Precip Events Conditions
12:53 AM 61.0 °F 53.1 °F 75% 30.25 in 10.0 mi NE 11.5 mph - N/A   Clear
1:53 AM 60.1 °F 53.1 °F 78% 30.24 in 10.0 mi NE 12.7 mph - N/A   Clear
2:53 AM 59.0 °F 53.1 °F 81% 30.23 in 10.0 mi NE 9.2 mph - N/A   Clear
3:53 AM 57.9 °F 54.0 °F 87% 30.23 in 10.0 mi NE 11.5 mph - N/A   Clear
4:53 AM 57.9 °F 52.0 °F 81% 30.23 in 10.0 mi NE 12.7 mph - N/A   Clear
5:53 AM 57.0 °F 51.1 °F 81% 30.23 in 10.0 mi NE 10.4 mph - N/A   Clear
6:53 AM 57.0 °F 51.1 °F 81% 30.26 in 10.0 mi NE 12.7 mph 20.7 mph N/A   Clear
7:53 AM 57.9 °F 50.0 °F 75% 30.28 in 10.0 mi NE 12.7 mph 21.9 mph N/A   Clear
8:53 AM 62.6 °F 51.8 °F 68% 30.29 in 10.0 mi NE 12.7 mph - N/A   Clear
9:53 AM 66.2 °F 51.8 °F 60% 30.30 in 10.0 mi NE 12.7 mph - N/A   Clear
10:53 AM 72.0 °F 55.0 °F 55% 30.30 in 10.0 mi NE 15.0 mph - N/A   Clear
11:53 AM 75.2 °F 55.4 °F 50% 30.29 in 10.0 mi ENE 18.4 mph 25.3 mph N/A   Clear
12:06 PM 75.2 °F 55.4 °F 50% 30.28 in 10.0 mi ENE 18.4 mph - N/A   Clear
12:53 PM 78.1 °F 57.0 °F 48% 30.25 in 10.0 mi ENE 15.0 mph 24.2 mph N/A   Clear
1:53 PM 78.8 °F 57.2 °F 47% 30.23 in 10.0 mi East 15.0 mph - N/A   Clear
2:53 PM 78.8 °F 57.2 °F 47% 30.22 in 10.0 mi NE 16.1 mph 24.2 mph N/A   Scattered Clouds
3:53 PM 77.0 °F 55.9 °F 48% 30.21 in 10.0 mi ENE 16.1 mph - N/A   Scattered Clouds
4:53 PM 75.9 °F 55.9 °F 50% 30.21 in 10.0 mi ENE 19.6 mph 25.3 mph N/A   Scattered Clouds
5:53 PM 73.0 °F 55.9 °F 55% 30.23 in 10.0 mi NE 17.3 mph - N/A   Partly Cloudy
6:53 PM 70.0 °F 57.0 °F 63% 30.25 in 10.0 mi NE 11.5 mph - N/A   Clear
7:53 PM 68.0 °F 55.9 °F 65% 30.26 in 10.0 mi NE 13.8 mph - N/A   Clear
8:53 PM 66.0 °F 57.0 °F 73% 30.28 in 10.0 mi NE 12.7 mph - N/A   Clear
9:53 PM 64.9 °F 55.9 °F 73% 30.29 in 10.0 mi ENE 10.4 mph - N/A   Clear
10:53 PM 63.0 °F 55.9 °F 78% 30.29 in 10.0 mi NE 10.4 mph - N/A   Clear
11:53 PM 62.1 °F 55.9 °F 80% 30.28 in 10.0 mi NE 12.7 mph - N/A   Clear